Wetbulb
49.80 49.64 49.38 48.99 48.64 48.87 43.45 38.85 32.19 38.33 44.58 33.66 33.33 30.21 32.56 35.76 33.47 35.88 33.65 31.64 29.89 27.81 28.24 27.32 28.27 28.25 33.17 37.75 37.32 32.90 35.12 31.64 27.11 29.29 35.78 38.53 37.46 34.83 33.62 26.45 24.76 28.28 27.53 28.65
48.90 48.87 48.89 48.78 48.54 46.88 40.24 35.65 35.15 41.37 43.23 27.79 27.47 29.46 30.79 33.07 31.64 31.44 31.80 30.85 31.71 31.31 26.88 23.59 27.40 28.66 34.70 36.10 35.21 33.74 34.24 29.89 24.06 24.93 31.26 31.80 33.04 33.78 33.37 32.10 29.13 24.60 22.59 25.13
48.11 48.12 48.36 48.11 47.82 47.03 41.89 34.05 27.26 32.36 36.95 36.41 31.09 29.55 29.44 29.31 34.48 32.51 33.50 32.92 33.98 31.83 28.53 29.60 26.84 27.56 33.01 36.19 35.86 40.45 37.10 29.33 25.37 20.87 24.21 28.08 27.99 31.29 31.80 29.72 18.80 23.29 25.45 27.17
47.80 47.78 47.62 47.57 47.17 46.81 40.27 34.05 28.67 27.90 23.66 23.24 28.97 30.40 30.37 27.42 26.94 31.79 32.16 28.82 29.35 27.68 25.21 27.67 27.29 29.17 30.67 33.12 36.04 34.76 32.98 25.28 27.51 28.92 30.04 29.66 28.27 28.70 30.53 27.65 26.42 22.42 25.49 26.38
47.08 46.94 47.03 47.10 46.41 44.44 35.91 29.39 24.66 31.45 29.16 28.64 25.17 25.34 25.55 25.03 25.88 27.43 25.48 28.03 29.11 30.84 27.61 28.68 26.65 29.68 28.53 27.87 32.56 32.50 33.08 25.96 27.68 25.75 29.07 28.54 26.49 28.26 28.43 28.17 28.41 29.36 28.82 27.01
46.00 46.28 46.54 46.40 45.88 41.84 30.91 33.07 32.80 28.79 23.29 23.91 18.40 21.23 24.14 24.53 26.41 27.74 29.94 28.12 27.66 25.12 27.11 32.09 33.34 34.51 33.61 32.40 29.58 29.28 29.43 25.71 25.16 21.79 27.85 27.71 22.91 26.42 26.70 25.67 28.40 28.90 24.02 27.62
45.37 45.73 45.77 45.74 45.46 40.36 31.92 31.61 31.51 24.36 18.74 22.98 23.08 25.10 25.49 24.21 24.70 23.62 27.12 28.79 25.70 28.47 35.39 36.21 34.80 33.16 32.78 32.77 31.51 32.68 28.88 27.86 27.49 23.54 25.80 16.18 25.17 30.32 30.44 28.47 29.73 31.26 30.00 30.26
44.58 45.32 45.18 45.08 44.79 42.21 34.15 31.10 29.15 21.54 13.02 24.03 23.94 24.47 24.54 25.69 26.51 25.04 25.44 27.76 31.04 33.17 30.73 26.17 24.95 24.88 27.70 29.81 31.01 30.80 31.72 28.63 24.72 21.20 20.33 23.38 25.86 28.72 27.98 26.50 25.88 31.78 31.22 32.14
44.43 44.27 44.43 44.46 44.38 44.35 35.36 32.39 33.42 26.52 19.32 19.49 26.30 22.43 24.75 20.70 18.16 22.79 26.54 31.59 33.83 31.16 26.16 24.44 19.33 16.63 23.76 23.47 25.95 32.21 30.93 31.51 26.54 23.41 16.55 11.18 22.72 28.05 32.69 31.46 20.74 32.51 32.74 31.63
43.87 43.97 43.92 44.04 44.22 44.09 38.94 35.58 35.14 31.76 26.11 26.18 27.04 20.71 20.07 25.34 23.26 23.83 24.85 28.70 32.13 33.54 27.00 21.71 19.83 20.08 26.74 20.74 20.72 23.29 25.99 26.28 22.68 21.62 19.00 21.48 27.45 30.64 32.44 19.36 20.64 32.18 33.02 32.54
43.16 43.28 43.44 43.66 43.77 43.85 38.13 35.92 36.48 33.86 23.64 27.30 30.04 30.67 26.78 28.50 28.05 22.55 25.44 27.41 30.67 29.56 25.10 24.04 22.07 23.14 24.01 22.67 24.06 24.18 23.02 21.04 19.48 22.91 19.25 14.22 30.69 29.72 25.00 28.12 29.73 32.21 32.67 33.14
43.05 43.17 43.22 43.54 43.80 43.69 39.86 31.93 36.30 38.67 32.68 30.11 34.99 34.44 35.75 33.85 33.74 30.23 30.66 29.43 29.76 31.64 27.17 27.15 26.41 23.32 20.52 22.40 18.02 25.13 21.72 24.91 21.68 22.34 21.38 28.82 30.93 30.31 32.11 33.92 32.43 32.91 33.80 35.85
42.69 42.56 42.82 43.29 43.70 43.62 41.82 36.41 38.45 36.48 31.70 31.94 32.32 30.63 35.33 37.26 36.28 38.21 29.35 33.15 34.79 33.15 33.30 29.62 27.67 23.65 24.89 19.46 20.50 24.35 26.64 27.81 24.77 25.07 26.16 27.64 30.15 30.73 30.69 30.06 30.22 33.19 35.61 36.04
42.24 41.89 42.07 42.17 42.50 43.37 42.25 37.29 37.70 34.73 32.42 26.73 24.47 34.61 31.75 36.11 36.05 36.12 37.08 35.31 35.72 35.80 34.24 29.54 27.03 24.74 27.89 24.61 24.64 23.11 25.60 26.89 24.62 24.42 25.81 27.13 28.18 29.16 29.44 31.03 33.31 32.28 33.95 35.76
41.94 41.84 41.77 41.84 42.41 43.03 41.53 39.74 38.49 39.34 33.48 25.44 23.54 31.01 32.34 33.30 33.54 33.46 36.19 35.20 32.18 30.54 26.13 25.93 24.46 27.45 27.02 26.45 25.79 21.81 25.66 25.50 22.51 19.78 27.02 26.64 25.97 29.25 31.31 30.52 30.04 31.17 32.14 31.97
41.90 41.88 41.89 42.06 42.53 38.96 30.88 20.97 29.34 37.15 34.33 21.74 19.68 26.67 28.52 30.40 31.29 30.97 29.87 31.08 29.02 27.95 26.30 24.10 26.38 29.31 24.69 19.09 18.24 25.35 26.49 28.04 28.53 27.31 29.13 28.89 30.04 30.98 31.43 30.39 31.12 31.86 31.16 31.14
41.58 41.37 41.13 41.15 41.76 32.48 23.79 21.47 30.76 39.65 35.76 20.94 20.76 17.70 26.56 29.77 30.39 29.17 28.68 28.93 27.81 26.93 25.26 22.88 24.39 25.09 25.45 17.28 18.98 26.63 27.83 29.22 29.54 29.97 29.26 27.82 29.05 26.69 30.61 30.88 31.35 33.18 34.63 34.99
41.50 40.99 41.21 40.96 40.95 37.69 32.46 32.73 39.78 36.76 31.69 28.61 22.31 18.74 19.17 28.72 21.57 20.55 28.07 22.27 24.91 24.64 23.68 23.63 22.96 24.57 24.11 20.18 25.33 26.63 27.78 28.87 29.42 29.93 30.79 30.44 30.81 29.02 29.03 29.60 30.28 30.64 31.61 31.51
41.62 40.78 39.61 34.26 32.11 30.18 30.12 38.83 39.06 34.39 28.04 17.17 23.73 18.33 12.60 28.91 27.35 28.45 25.54 25.58 21.83 25.91 21.25 22.51 25.88 21.78 20.36 24.35 25.08 25.99 27.09 26.29 27.68 29.21 29.19 28.85 27.44 28.18 28.37 28.85 29.56 30.84 30.71 31.26
40.10 35.11 26.34 22.81 30.41 38.70 39.13 35.32 30.75 30.40 30.63 29.17 23.96 25.54 20.47 26.76 26.25 21.49 24.84 26.85 25.02 19.87 24.11 26.43 22.30 22.11 26.93 27.43 28.85 31.67 34.05 31.50 31.81 26.44 24.72 25.48 25.85 26.82 28.06 29.93 32.38 32.32 32.35 30.86
33.88 30.34 29.43 33.16 39.29 35.79 31.98 24.40 23.15 24.18 23.07 26.31 25.25 24.76 22.75 28.15 22.61 23.12 25.77 22.73 24.46 20.18 24.11 23.88 22.37 22.53 27.72 34.12 33.55 32.70 32.43 32.04 31.54 29.69 29.73 28.98 29.85 30.39 30.66 32.09 33.95 33.48 31.38 31.52
33.61 34.86 37.54 36.78 33.12 28.88 24.58 21.32 24.39 23.55 21.17 24.20 22.48 25.01 25.98 25.96 27.85 21.66 24.20 23.88 25.54 19.84 27.86 23.69 20.89 25.97 31.34 32.52 31.17 30.28 31.21 31.64 31.99 32.86 32.49 31.93 31.32 31.38 32.69 32.54 31.62 31.88 30.29 31.15
36.29 32.41 30.20 29.45 28.01 21.34 21.03 15.04 21.50 21.14 26.42 27.08 26.13 22.30 25.06 27.58 30.07 23.90 24.30 21.10 18.36 26.92 18.14 17.80 23.47 28.94 31.46 29.58 29.81 29.36 30.71 31.18 31.28 31.90 33.18 33.18 32.59 32.41 31.05 30.58 29.59 28.54 26.96 27.28
29.75 27.10 19.33 22.36 17.65 23.23 24.51 25.43 25.45 27.68 28.33 28.66 28.84 26.80 26.35 28.38 26.45 25.12 23.63 23.76 24.27 17.74 19.25 20.27 23.85 28.95 28.47 28.66 27.63 27.67 27.28 29.35 29.69 30.64 31.93 31.61 31.43 30.67 29.47 30.22 30.16 28.96 25.80 26.24
28.26 29.99 18.21 22.88 24.55 25.24 28.32 29.54 30.27 31.49 32.26 31.30 29.39 29.26 27.97 26.97 26.17 26.77 24.63 20.87 17.74 19.75 16.70 23.01 27.22 28.37 26.27 26.00 26.27 24.82 26.95 27.85 28.58 30.29 30.21 30.19 30.45 29.50 27.79 28.03 31.40 29.59 27.14 26.06
30.70 29.45 26.23 24.93 27.64 24.53 28.39 30.61 30.61 34.01 32.36 32.59 31.67 28.15 23.96 22.42 24.78 23.18 21.28 18.74 13.60 17.82 22.90 25.73 28.08 27.12 26.27 25.49 22.93 26.87 27.77 28.17 28.79 29.51 28.90 28.00 27.53 27.04 26.73 27.86 28.30 27.82 26.70 25.30
30.13 27.04 30.95 26.70 22.71 23.45 27.17 30.22 30.84 34.08 31.30 28.28 29.17 23.96 22.18 23.38 22.83 22.96 24.33 18.80 20.37 24.63 28.30 26.90 27.82 26.93 24.64 22.91 24.24 26.60 28.23 27.69 25.88 27.72 26.43 25.75 26.14 26.68 26.23 24.27 23.39 24.09 24.10 23.32
MSLP
1014.69 1015.28 1015.37 1015.60 1016.06 1016.71 1017.06 1017.99 1018.87 1018.55 1018.39 1018.97 1018.24 1017.81 1017.61 1017.18 1016.29 1016.62 1016.40 1015.82 1015.46 1015.41 1015.19 1013.97 1013.36 1012.64 1012.03 1011.65 1011.44 1011.84 1012.03 1012.71 1012.02 1011.22 1010.32 1009.92 1009.95 1010.48 1010.92 1012.57 1012.91 1012.44 1011.88 1012.01
1014.66 1015.36 1015.24 1015.76 1016.08 1016.59 1017.72 1018.39 1018.68 1018.70 1018.56 1018.56 1018.38 1018.18 1017.50 1017.30 1016.69 1016.61 1016.71 1016.59 1016.47 1015.79 1015.31 1014.69 1013.45 1012.69 1012.16 1012.02 1012.01 1011.87 1011.89 1012.49 1012.72 1011.76 1011.33 1010.66 1010.78 1011.10 1011.72 1012.50 1012.87 1012.29 1012.10 1011.71
1014.44 1015.12 1015.47 1015.91 1016.14 1016.80 1017.87 1018.98 1019.11 1019.29 1018.96 1018.85 1018.73 1018.37 1017.95 1017.48 1017.04 1016.97 1016.95 1016.86 1016.74 1016.29 1015.52 1014.48 1013.52 1012.95 1012.31 1012.13 1012.15 1011.95 1012.18 1012.41 1012.50 1012.19 1011.59 1011.38 1011.55 1011.84 1012.46 1012.53 1012.85 1012.14 1011.57 1010.83
1014.50 1014.87 1015.49 1015.98 1016.39 1016.68 1018.00 1018.87 1019.46 1019.32 1019.64 1019.32 1018.98 1018.87 1018.25 1017.89 1017.41 1017.10 1016.98 1016.66 1016.33 1016.29 1015.88 1015.13 1014.10 1013.30 1013.02 1012.54 1012.24 1012.27 1012.57 1012.57 1012.50 1012.02 1011.69 1011.70 1011.59 1011.67 1011.94 1012.04 1011.64 1011.48 1010.41 1010.49
1014.38 1014.97 1015.28 1015.73 1016.47 1017.08 1018.20 1019.27 1020.13 1019.86 1019.80 1019.87 1019.65 1019.25 1018.81 1018.27 1017.79 1017.83 1017.06 1016.94 1016.53 1016.20 1015.49 1015.00 1014.41 1014.23 1013.81 1012.84 1012.36 1012.46 1012.55 1012.30 1012.26 1011.95 1011.57 1011.47 1011.35 1011.16 1011.07 1011.06 1010.91 1010.73 1010.12 1009.66
1014.40 1014.93 1015.32 1016.03 1016.52 1016.87 1018.38 1019.62 1019.73 1019.67 1020.07 1020.34 1020.26 1019.52 1018.70 1018.12 1018.03 1017.44 1016.94 1016.72 1016.36 1015.84 1014.90 1014.85 1014.95 1014.76 1014.19 1013.62 1013.32 1013.00 1012.97 1012.66 1012.40 1011.74 1011.50 1011.16 1011.07 1010.20 1010.02 1009.97 1009.79 1009.68 1009.63 1009.35
1014.70 1015.00 1015.40 1015.80 1016.23 1016.67 1018.04 1018.94 1019.44 1020.18 1020.33 1020.13 1019.77 1019.16 1018.86 1018.39 1018.14 1017.63 1016.89 1016.80 1016.37 1014.14 1014.95 1014.43 1014.20 1013.80 1013.26 1013.02 1012.49 1012.53 1012.35 1012.39 1012.25 1011.78 1011.73 1010.60 1009.41 1008.95 1008.88 1009.07 1008.90 1008.93 1008.92 1009.17
1014.57 1014.92 1015.23 1015.66 1016.07 1016.65 1017.58 1018.46 1019.10 1019.88 1020.11 1019.54 1019.28 1018.98 1018.65 1018.21 1017.89 1017.37 1016.73 1015.92 1015.07 1014.65 1015.19 1015.03 1013.95 1012.73 1012.17 1011.44 1011.03 1011.19 1011.58 1011.87 1011.89 1011.73 1011.32 1010.38 1009.23 1008.77 1008.56 1008.50 1008.62 1008.59 1008.94 1009.13
1014.49 1014.83 1015.17 1015.50 1015.88 1016.44 1017.26 1017.94 1018.14 1018.88 1019.57 1018.85 1018.41 1018.42 1018.26 1018.13 1017.73 1016.91 1015.63 1014.54 1013.93 1014.30 1014.30 1014.05 1012.83 1012.26 1011.11 1010.52 1009.93 1009.76 1010.68 1010.93 1011.70 1011.51 1011.16 1010.25 1008.90 1008.23 1007.89 1008.01 1008.74 1008.75 1008.88 1009.09
1014.58 1014.89 1015.17 1015.43 1015.76 1016.13 1016.94 1017.44 1017.59 1018.36 1018.80 1017.99 1017.94 1017.79 1017.73 1017.56 1017.22 1016.56 1015.48 1014.45 1013.44 1013.28 1012.91 1012.79 1011.87 1010.93 1010.39 1010.18 1009.72 1009.78 1009.91 1010.19 1010.29 1010.79 1010.95 1009.73 1008.60 1008.19 1008.14 1008.82 1008.83 1008.37 1008.56 1008.75
1014.58 1014.78 1014.95 1015.16 1015.41 1015.66 1016.59 1016.97 1017.13 1017.73 1017.94 1017.23 1017.03 1016.70 1016.71 1016.63 1016.66 1016.30 1015.30 1014.75 1012.90 1012.48 1011.69 1011.37 1010.79 1010.19 1009.56 1009.36 1008.50 1008.46 1008.84 1009.81 1010.39 1010.51 1010.45 1009.46 1007.85 1008.23 1008.49 1008.13 1008.13 1008.04 1008.11 1008.51
1014.36 1014.52 1014.65 1014.78 1014.95 1015.21 1015.98 1016.92 1016.85 1016.99 1017.46 1016.55 1015.99 1015.64 1015.23 1015.34 1015.01 1015.41 1015.14 1014.21 1013.28 1012.22 1011.46 1010.94 1010.11 1009.91 1009.42 1008.61 1008.73 1008.31 1008.56 1008.08 1008.63 1009.24 1008.37 1007.68 1007.34 1007.25 1007.48 1007.66 1008.11 1008.05 1007.98 1008.20
1014.17 1014.29 1014.36 1014.44 1014.58 1014.85 1015.47 1016.22 1016.68 1017.01 1016.89 1016.04 1015.61 1014.35 1013.34 1013.58 1013.66 1014.02 1014.37 1013.56 1012.99 1012.51 1012.38 1011.80 1011.07 1010.44 1010.10 1009.55 1008.85 1008.33 1007.91 1007.97 1008.21 1008.51 1007.64 1007.50 1007.28 1007.34 1007.46 1007.55 1007.63 1007.79 1007.91 1007.87
1014.06 1014.14 1014.21 1014.25 1014.32 1014.47 1015.19 1015.90 1016.56 1017.04 1016.80 1016.01 1014.27 1013.18 1012.99 1012.09 1012.40 1012.85 1013.01 1012.75 1012.64 1012.79 1012.32 1011.95 1011.51 1011.24 1010.89 1010.39 1010.12 1009.32 1008.22 1008.06 1008.10 1007.89 1007.67 1007.75 1007.66 1007.57 1007.45 1007.35 1007.35 1007.69 1007.73 1007.77
1014.06 1014.16 1014.25 1014.30 1014.44 1014.76 1015.35 1015.79 1016.16 1016.15 1016.72 1016.08 1014.72 1013.36 1011.77 1011.52 1011.70 1011.97 1012.14 1012.48 1012.74 1012.76 1012.53 1012.40 1012.03 1011.37 1011.13 1010.39 1010.10 1009.00 1008.19 1007.79 1007.97 1007.39 1007.22 1007.05 1007.18 1007.09 1006.99 1007.21 1007.32 1007.23 1007.62 1007.31
1014.21 1014.33 1014.45 1014.54 1014.71 1015.18 1016.00 1016.32 1016.17 1015.90 1016.21 1016.61 1015.63 1013.59 1012.18 1011.60 1011.19 1011.44 1011.64 1011.82 1012.19 1012.37 1012.32 1012.20 1011.53 1010.89 1010.89 1010.68 1009.72 1007.65 1007.43 1007.18 1006.76 1006.73 1006.68 1006.63 1006.59 1006.67 1006.76 1007.12 1007.16 1006.96 1007.14 1006.89
1014.33 1014.49 1014.62 1014.74 1014.98 1015.50 1015.84 1015.66 1015.52 1015.45 1015.86 1016.38 1015.77 1014.43 1012.44 1011.68 1011.37 1011.43 1011.49 1011.62 1011.83 1012.11 1012.19 1011.81 1011.24 1010.86 1010.82 1010.45 1009.26 1006.06 1007.03 1006.74 1006.57 1006.44 1006.70 1006.84 1006.50 1006.48 1006.17 1006.59 1006.63 1006.80 1006.71 1006.37
1014.35 1014.49 1014.61 1014.70 1014.78 1015.06 1015.25 1014.75 1014.73 1015.23 1015.80 1016.14 1015.84 1014.56 1013.52 1011.79 1011.78 1011.89 1011.80 1011.94 1012.07 1011.80 1011.42 1011.12 1010.85 1010.56 1010.34 1009.43 1006.18 1006.31 1006.18 1006.13 1006.07 1005.82 1005.73 1005.73 1005.78 1005.90 1005.94 1006.04 1006.22 1006.41 1006.30 1006.09
1014.42 1014.67 1014.80 1015.02 1015.17 1015.38 1014.90 1014.44 1014.31 1014.93 1015.72 1015.54 1015.02 1014.47 1013.55 1011.92 1011.97 1011.94 1011.91 1011.96 1011.95 1011.36 1011.06 1010.64 1010.35 1009.77 1008.77 1006.39 1006.21 1005.85 1005.66 1005.65 1005.06 1004.88 1004.97 1005.16 1005.44 1005.52 1005.56 1005.66 1005.68 1006.00 1005.95 1006.08
1014.75 1015.09 1015.25 1015.21 1014.85 1014.48 1014.46 1014.51 1014.76 1014.95 1015.02 1015.04 1014.15 1013.48 1013.00 1012.27 1012.06 1012.00 1012.16 1011.84 1011.31 1010.83 1009.89 1009.73 1009.30 1007.83 1006.48 1006.04 1005.86 1005.73 1005.45 1005.11 1004.38 1004.35 1004.37 1004.59 1004.72 1004.69 1004.77 1004.83 1004.89 1005.09 1005.26 1005.62
1015.20 1015.43 1015.23 1014.64 1014.35 1014.53 1014.34 1014.28 1014.36 1014.24 1013.96 1013.44 1012.67 1012.45 1012.24 1011.70 1011.83 1011.79 1011.55 1011.13 1010.59 1009.93 1008.96 1008.92 1008.07 1006.85 1005.74 1005.75 1005.66 1005.55 1005.24 1004.78 1004.02 1003.76 1003.63 1003.74 1003.77 1003.97 1004.24 1004.29 1004.41 1004.65 1005.07 1005.54
1014.98 1015.10 1014.79 1014.50 1014.24 1014.14 1014.03 1013.59 1013.40 1013.21 1012.41 1011.76 1011.80 1011.50 1011.64 1011.32 1011.22 1011.38 1010.98 1010.58 1010.03 1008.92 1008.61 1008.41 1007.31 1005.77 1005.52 1005.73 1005.73 1005.57 1005.19 1004.77 1004.36 1004.06 1003.86 1003.77 1003.72 1003.67 1003.65 1003.64 1003.96 1004.43 1004.84 1005.57
1015.15 1015.11 1014.58 1013.87 1013.66 1013.43 1012.72 1012.30 1011.87 1011.56 1010.89 1010.51 1010.87 1010.97 1010.96 1011.05 1011.01 1010.94 1010.65 1009.91 1009.05 1008.53 1008.34 1007.65 1006.26 1005.63 1005.77 1006.00 1005.92 1005.69 1005.45 1005.05 1004.66 1004.20 1003.83 1003.52 1003.47 1003.41 1003.42 1003.48 1003.55 1004.14 1004.98 1005.69
1014.80 1014.37 1013.71 1013.11 1012.57 1011.80 1010.73 1010.24 1009.92 1009.65 1009.64 1009.73 1009.79 1010.28 1010.29 1010.24 1010.42 1010.13 1009.61 1008.96 1008.77 1008.52 1007.87 1006.85 1006.24 1006.11 1006.16 1006.36 1006.31 1006.01 1005.61 1005.26 1004.83 1004.40 1003.91 1003.52 1003.18 1002.86 1002.62 1002.75 1003.28 1003.98 1004.94 1005.83
1013.78 1013.06 1012.43 1011.66 1010.79 1010.40 1009.91 1009.61 1009.56 1008.97 1008.82 1008.54 1008.62 1008.96 1009.54 1009.49 1009.42 1009.22 1009.14 1009.00 1008.30 1007.67 1006.95 1006.40 1006.10 1006.26 1006.44 1006.49 1006.44 1006.28 1005.87 1005.59 1005.18 1004.68 1004.12 1003.64 1003.20 1002.86 1002.89 1003.02 1003.54 1004.30 1005.24 1006.04
1012.40 1011.87 1011.09 1010.54 1010.57 1009.94 1009.57 1009.24 1008.91 1008.62 1008.26 1007.94 1008.08 1008.06 1008.69 1008.66 1008.63 1008.76 1008.56 1008.54 1007.79 1006.89 1006.39 1006.25 1006.46 1006.62 1006.74 1006.80 1006.72 1006.36 1006.02 1005.73 1005.43 1005.02 1004.62 1004.31 1004.01 1003.87 1003.90 1004.12 1004.56 1005.08 1005.68 1006.43
1010.80 1010.33 1009.98 1010.00 1009.87 1009.51 1008.94 1008.71 1008.58 1008.45 1008.33 1007.84 1007.64 1007.69 1007.69 1008.14 1008.30 1008.22 1007.64 1007.12 1006.55 1006.31 1006.56 1006.67 1006.77 1006.93 1006.99 1006.97 1006.80 1006.58 1006.24 1006.05 1005.87 1005.45 1005.23 1005.06 1004.93 1004.86 1004.88 1005.26 1005.82 1006.15 1006.65 1007.22
Wind_Speed
10 11 11 10 9 11 6 3 2 3 1 3 2 4 5 2 5 5 5 7 13 9 6 3 3 6 5 3 3 4 6 3 4 8 7 4 1 2 8 4 3 3 2 1
10 9 10 10 11 10 4 1 1 1 1 4 6 5 5 3 4 1 3 5 7 8 10 8 10 10 7 10 5 5 5 4 2 8 2 1 2 2 3 3 2 5 4 4
9 9 10 10 10 12 6 2 1 2 1 1 3 4 5 5 3 4 5 6 5 5 5 6 6 5 3 2 3 5 2 6 6 10 10 3 3 5 7 4 3 3 6 4
11 10 10 10 9 14 5 2 2 3 2 4 7 6 3 2 5 3 3 4 14 17 11 10 10 11 16 8 11 14 6 14 6 13 16 8 6 6 8 8 7 5 9 7
9 10 10 10 11 11 4 4 3 1 2 4 0 2 4 10 10 11 11 8 11 12 14 12 6 6 5 7 1 4 2 13 6 8 12 9 12 8 11 11 13 12 13 15
10 11 11 12 15 8 3 1 1 4 3 2 3 4 5 6 6 6 10 10 9 14 16 7 6 9 10 8 6 4 5 4 5 15 6 5 6 13 12 7 6 10 10 6
11 12 12 12 16 8 4 3 3 3 4 4 5 5 7 13 11 16 15 12 14 20 8 5 10 14 15 17 15 11 8 4 2 4 3 7 6 3 5 8 9 8 3 3
11 11 11 12 15 13 4 3 4 4 3 4 6 10 11 12 12 15 16 18 24 17 10 7 7 5 5 14 18 16 15 10 6 4 5 6 6 7 8 8 5 3 5 3
7 7 8 10 13 16 4 2 3 4 4 6 10 8 9 8 4 8 11 14 12 6 4 7 8 7 5 5 4 13 13 10 7 4 3 7 5 1 5 5 4 6 4 4
7 8 8 9 11 14 4 3 5 3 3 5 5 5 5 3 3 6 6 6 5 8 6 7 8 10 4 7 5 6 9 4 8 7 5 6 6 5 4 5 7 5 3 4
7 7 9 10 11 13 6 2 5 6 3 7 8 6 7 8 5 8 7 8 3 4 9 7 5 7 9 5 5 8 11 8 6 6 5 10 7 3 9 7 3 4 3 3
7 7 8 10 11 10 9 2 2 4 4 5 2 6 13 17 21 11 6 6 7 4 3 3 1 4 1 5 6 2 5 7 8 8 8 4 5 5 3 4 3 3 3 5
5 5 6 8 10 11 10 3 3 2 3 5 7 14 17 14 16 13 6 3 3 3 3 2 2 3 3 2 4 1 2 3 3 4 6 6 5 2 2 2 4 4 5 5
3 2 1 1 4 10 10 3 3 2 2 4 7 3 6 5 10 16 18 15 5 5 1 2 1 2 1 1 4 3 3 4 5 4 2 3 4 5 4 5 3 4 6 6
4 3 3 2 6 10 4 1 3 3 2 3 5 8 7 8 8 11 13 12 8 3 2 2 3 2 2 2 2 5 4 4 4 7 5 6 5 6 5 6 7 7 6 8
5 5 6 6 10 10 4 4 3 3 4 1 5 5 5 4 3 6 6 8 4 3 3 3 3 3 3 1 4 5 5 7 9 9 9 7 8 8 5 5 9 9 8 8
4 2 2 2 8 3 4 6 5 2 2 2 5 6 5 4 1 1 0 2 3 3 3 4 4 3 4 2 9 26 8 11 9 7 3 5 5 6 7 8 8 8 9 6
4 1 2 1 1 2 3 4 11 4 2 1 4 6 6 1 2 2 0 1 1 2 3 2 2 0 3 7 19 10 10 11 13 15 13 16 10 5 8 5 5 9 8 4
7 6 4 4 2 1 4 5 1 2 4 3 3 3 5 2 1 1 3 1 2 1 2 3 3 3 8 9 6 9 9 7 13 10 9 10 9 12 10 9 8 9 6 5
8 4 4 3 3 4 3 2 2 2 3 3 5 2 4 2 0 2 1 1 3 2 4 3 3 5 9 8 7 6 9 15 15 11 7 6 7 9 10 10 6 8 7 6
2 1 2 2 3 2 1 2 2 2 3 4 4 7 5 2 3 3 4 2 3 3 2 3 3 4 2 2 5 6 10 11 9 6 8 8 8 7 7 5 7 6 7 9
4 1 3 2 2 2 3 3 2 5 5 3 3 4 5 3 1 2 2 3 2 5 3 3 3 4 2 3 5 10 10 11 12 9 9 8 7 6 7 8 6 8 7 9
3 2 4 3 3 5 5 5 4 3 4 4 3 2 3 2 2 2 1 4 5 2 1 4 5 1 3 4 6 8 8 8 10 10 9 9 9 10 9 8 5 8 8 8
4 4 5 4 4 6 5 4 2 4 2 4 4 2 4 3 4 3 4 4 1 2 4 6 2 2 3 3 4 6 8 9 9 11 9 9 9 10 10 9 10 11 11 10
4 4 6 8 5 3 4 2 2 5 4 7 3 3 4 4 4 3 2 3 4 5 5 3 3 2 3 4 5 6 9 7 8 9 8 8 7 4 5 5 7 8 10 10
4 6 4 4 3 4 2 4 5 2 2 2 2 3 4 5 3 4 6 3 6 5 3 1 1 2 3 4 5 6 6 6 7 7 5 5 5 5 4 7 7 7 9 9
4 4 5 3 2 5 4 3 3 1 2 3 2 4 7 1 3 4 5 6 4 2 1 0 2 3 4 4 5 5 4 5 6 5 5 4 4 4 5 7 4 6 6 7
Wind_Direction
157 151 145 136 127 121 70 112 220 314 204 205 212 227 200 212 283 279 301 319 254 254 297 260 229 233 234 331 22 311 195 355 284 239 283 5 179 252 179 187 227 249 307 114
156 165 156 151 146 123 107 143 257 355 257 226 220 274 227 203 268 217 223 217 258 259 241 236 236 239 248 269 262 215 194 164 335 323 7 348 219 122 120 125 59 219 171 238
167 172 169 162 156 130 100 145 192 309 278 234 248 214 234 239 233 239 194 278 299 273 289 247 213 218 258 285 224 230 300 198 202 236 242 167 198 176 199 172 144 195 226 307
166 160 163 170 158 143 97 127 210 181 223 272 254 289 313 276 288 318 306 243 232 249 260 269 268 267 268 256 250 261 226 256 239 246 252 245 217 203 202 209 220 192 264 254
167 178 176 171 166 128 88 139 150 227 262 250 270 253 231 263 268 256 271 261 320 320 276 260 283 334 222 237 135 195 209 240 202 252 248 241 249 235 239 240 251 245 256 268
180 181 180 184 168 113 100 174 4 110 267 170 119 220 234 267 340 252 229 253 291 285 282 297 260 274 277 269 281 258 205 205 225 254 240 255 245 229 222 213 213 221 237 260
194 193 195 189 179 139 127 176 124 115 244 194 205 243 257 263 260 258 273 282 276 263 320 284 247 239 255 247 251 231 223 208 199 231 222 242 252 196 180 201 233 228 213 120
197 202 200 191 188 162 110 158 126 135 228 208 245 250 260 271 269 271 269 266 255 274 279 283 257 246 229 228 236 231 222 228 228 234 215 299 289 220 197 183 213 187 156 162
190 195 195 191 190 181 110 171 144 122 128 234 228 251 254 261 261 282 249 262 249 179 193 214 222 235 274 209 238 207 195 195 200 180 199 216 250 343 99 100 251 185 187 206
183 191 200 204 203 198 147 218 166 122 228 228 183 201 204 214 243 267 291 284 307 189 198 227 227 230 196 214 216 169 186 182 216 208 225 275 223 186 89 153 233 182 206 241
204 218 222 223 223 223 151 219 185 179 211 253 245 209 212 241 244 261 286 310 236 240 217 207 209 225 206 209 195 172 174 171 197 208 197 253 183 136 176 213 184 202 207 235
224 228 238 239 234 233 150 192 198 193 228 268 315 261 248 244 247 257 235 262 311 316 292 325 267 212 327 194 233 77 184 191 172 182 203 207 197 175 159 141 195 219 223 262
223 244 249 244 234 231 168 141 115 66 264 271 257 256 260 234 227 216 260 242 253 250 263 287 328 312 352 342 274 202 182 158 192 135 198 208 191 154 242 269 250 254 243 255
201 202 209 248 202 182 154 134 132 148 279 272 277 289 252 223 217 218 212 239 285 285 213 294 252 261 171 287 293 264 205 129 172 272 4 58 243 227 225 288 236 274 275 265
133 128 107 117 161 152 139 147 188 220 245 289 285 293 272 260 234 220 214 225 239 230 263 200 264 265 248 215 232 233 203 184 161 226 198 184 193 214 211 243 258 270 247 277
128 115 102 101 114 108 78 6 298 206 171 121 292 284 290 310 288 216 205 204 190 196 183 231 259 283 155 250 255 242 199 211 192 225 203 201 220 212 210 226 251 264 272 255
169 150 124 109 148 105 137 186 208 169 105 91 300 297 273 288 330 347 203 103 198 174 222 222 212 215 154 199 256 262 237 230 232 250 174 231 222 234 233 205 245 262 259 249
191 175 103 104 124 60 298 244 215 136 118 166 260 268 333 278 300 327 164 133 26 244 234 1 206 155 194 243 242 272 249 246 249 246 239 250 255 226 245 217 245 262 252 239
127 112 84 46 56 212 244 287 60 85 135 210 241 213 264 346 312 283 347 95 298 236 222 236 173 191 226 242 276 264 273 253 258 245 241 231 224 241 241 237 241 231 225 199
104 49 48 314 219 269 284 199 150 170 204 233 244 208 259 96 293 299 340 255 243 255 232 131 227 252 264 273 282 290 298 303 265 241 243 234 239 236 241 228 222 215 209 165
59 127 243 257 171 193 214 239 190 210 244 212 231 205 234 244 161 221 200 243 245 258 211 224 246 261 221 33 340 323 330 335 340 253 244 218 210 203 202 237 231 186 187 185
154 204 266 245 214 214 222 211 204 212 241 217 193 204 193 262 153 124 237 245 223 255 136 233 251 246 93 5 344 346 342 343 343 339 326 317 300 254 229 222 219 188 176 153
44 295 244 211 192 227 210 212 204 230 211 198 175 228 175 199 206 260 197 241 240 102 276 236 234 40 54 359 349 340 335 332 330 323 312 301 286 276 246 232 190 158 151 151
197 220 248 209 224 235 213 216 223 235 193 171 163 208 189 180 188 227 240 244 161 260 242 235 318 301 319 341 319 312 325 329 324 321 314 301 288 273 239 221 164 154 155 155
230 218 234 220 230 258 234 214 244 234 236 229 170 165 182 186 228 216 266 276 261 222 233 237 226 253 300 320 330 316 327 323 319 320 323 324 339 29 71 99 132 126 133 144
221 229 245 235 248 266 245 239 263 283 256 185 196 155 174 218 195 191 218 209 228 248 224 247 11 281 288 308 305 306 320 310 317 323 338 351 9 37 60 75 95 118 133 140
232 226 229 199 234 232 219 184 214 209 271 258 192 188 207 137 206 225 194 214 222 211 279 320 282 286 290 308 299 324 320 331 332 334 4 13 21 52 73 88 54 77 86 105